Buffalo, NY

1:20 AM EST on December 09, 2016 (GMT -0500)
Buffalo Niagara International

Weather History for KBUF - August, 2014

Change the Weather History Date:

Wednesday, August 6, 2014

  Actual Average Record
Temperature  
Mean Temperature 68 °F 71 °F  
Max Temperature 76 °F 79 °F 94 °F (1947)
Min Temperature 59 °F 62 °F 47 °F (1886)
Degree Days  
Heating Degree Days 0 0  
Month to date heating degree days 0 0  
Since 1 June heating degree days 38 73  
Since 1 July heating degree days 10 9  
Cooling Degree Days 3 6  
Month to date cooling degree days 31 36  
Year to date cooling degree days 332 362  
Since 1 June cooling degree days 309 336  
Growing Degree Days 18 (Base 50)    
Moisture  
Dew Point 56 °F    
Average Humidity 68    
Maximum Humidity 97    
Minimum Humidity 38    
Precipitation  
Precipitation 0.00 in 0.11 in 2.35 in (1977)
Month to date precipitation 1.55 0.66  
Year to date precipitation 28.33 22.56  
Snow  
Snow 0.00 in 0.00 in 0.00 in ()
Month to date snowfall 0.0 0.0  
Since 1 June snowfall 0.0 0.0  
Since 1 July snowfall 0.0 0.0  
Snow Depth 0.00 in    
Sea Level Pressure  
Sea Level Pressure 29.99 in    
Wind  
Wind Speed 4 mph (NE)    
Max Wind Speed 13 mph    
Max Gust Speed 17 mph    
Visibility 9 miles    
Events      
T = Trace of Precipitation, MM = Missing Value Source: NWS Daily Summary

Daily Weather History Graph

Daily Weather History Graph

Search for Another Location

Airport or City:

Trip Planner

Search our weather history database for the weather conditions in past years. The results will help you decide how hot, cold, wet, or windy it might be!

Date:

Astronomy

Aug. 06, 2014 Rise Set
Actual Time 6:11 AM EDT 8:29 PM EDT
Civil Twilight 5:39 AM EDT 9:01 PM EDT
Nautical Twilight 5:00 AM EDT 9:40 PM EDT
Astronomical Twilight 4:16 AM EDT 10:23 PM EDT
Moon 4:46 PM EDT (8/6) 1:44 AM EDT (8/6)
Length of Visible Light 15h 21m
Length of Day
14h 18m
Waxing Gibbous, 77% of the Moon is Illuminated
Aug 6
Waxing Gibbous
Aug 10
Full
Aug 17
Last Quarter
Aug 25
New
Sep 2
First Quarter

Hourly Weather History & Observations

Time (EDT) Temp. Dew Point Humidity Pressure Visibility Wind Dir Wind Speed Gust Speed Precip Events Conditions
12:54 AM 63.0 °F 60.1 °F 90% 30.00 in 6.0 mi Calm Calm - N/A   Partly Cloudy
1:54 AM 62.1 °F 60.1 °F 93% 29.98 in 5.0 mi SSW 3.5 mph - N/A   Partly Cloudy
2:54 AM 61.0 °F 59.0 °F 93% 29.98 in 5.0 mi Calm Calm - N/A   Mostly Cloudy
3:54 AM 61.0 °F 59.0 °F 93% 29.98 in 7.0 mi Calm Calm - N/A   Mostly Cloudy
4:54 AM 61.0 °F 59.0 °F 93% 29.99 in 8.0 mi South 3.5 mph - N/A   Mostly Cloudy
5:25 AM 61.0 °F 59.0 °F 93% 29.98 in 8.0 mi ESE 3.5 mph - N/A   Mostly Cloudy
5:54 AM 61.0 °F 59.0 °F 93% 29.99 in 7.0 mi South 3.5 mph - N/A   Mostly Cloudy
6:01 AM 61.0 °F 59.0 °F 93% 29.99 in 7.0 mi SSW 3.5 mph - N/A   Overcast
6:10 AM 61.0 °F 59.0 °F 93% 29.99 in 8.0 mi Calm Calm - N/A   Overcast
6:54 AM 62.1 °F 60.1 °F 93% 29.99 in 7.0 mi Calm Calm - N/A   Mostly Cloudy
7:54 AM 63.0 °F 61.0 °F 93% 29.99 in 7.0 mi Calm Calm - N/A   Partly Cloudy
8:54 AM 69.1 °F 61.0 °F 75% 29.99 in 7.0 mi Calm Calm - N/A   Partly Cloudy
9:54 AM 71.1 °F 59.0 °F 66% 29.99 in 10.0 mi NE 5.8 mph - N/A   Scattered Clouds
10:54 AM 73.0 °F 59.0 °F 61% 30.00 in 10.0 mi NE 4.6 mph - N/A   Mostly Cloudy
11:54 AM 73.0 °F 59.0 °F 61% 30.00 in 10.0 mi NE 10.4 mph - N/A   Mostly Cloudy
12:54 PM 72.0 °F 55.9 °F 57% 29.99 in 10.0 mi NNE 6.9 mph - N/A   Mostly Cloudy
1:54 PM 73.0 °F 55.0 °F 53% 29.99 in 10.0 mi North 10.4 mph - N/A   Mostly Cloudy
2:54 PM 73.9 °F 52.0 °F 46% 29.98 in 10.0 mi NNE 6.9 mph - N/A   Mostly Cloudy
3:54 PM 75.9 °F 48.0 °F 37% 29.97 in 10.0 mi NNE 5.8 mph - N/A   Mostly Cloudy
4:54 PM 75.0 °F 48.9 °F 40% 29.97 in 10.0 mi NNE 5.8 mph - N/A   Mostly Cloudy
5:54 PM 73.9 °F 48.0 °F 40% 29.98 in 10.0 mi NNW 6.9 mph - N/A   Mostly Cloudy
6:54 PM 73.0 °F 48.9 °F 42% 29.98 in 10.0 mi NNE 3.5 mph - N/A   Mostly Cloudy
7:54 PM 72.0 °F 50.0 °F 46% 29.99 in 10.0 mi Calm Calm - N/A   Mostly Cloudy
8:54 PM 70.0 °F 51.1 °F 51% 29.98 in 10.0 mi Calm Calm - N/A   Partly Cloudy
9:54 PM 68.0 °F 50.0 °F 52% 29.99 in 10.0 mi Calm Calm - N/A   Partly Cloudy
10:54 PM 66.0 °F 51.1 °F 59% 30.00 in 10.0 mi WSW 4.6 mph - N/A   Scattered Clouds